GFSNW_850_dewp_006.txt.gz
Dewpoint
-3 -2 -2 -1 -1 0 1 1 2 3 2 3 3 2 -1 -0 4 4 4 2 2 3 2 4 2 2 1 0 1 3 2 5 4 2 1 0 1 2 2 4 1 2 1 -0
-3 -3 -2 -1 -1 0 1 1 4 4 3 4 4 2 2 2 5 5 4 4 3 3 3 3 2 2 -1 1 2 3 3 5 5 4 4 3 5 2 1 1 2 2 2 -1
-3 -3 -2 -1 0 -1 2 1 4 3 3 3 2 2 2 2 3 4 3 4 3 4 4 2 2 2 0 1 1 2 2 5 5 4 5 5 6 4 3 2 5 2 2 -0
-3 -3 -2 -1 0 1 3 3 3 2 3 4 1 1 2 3 4 3 3 5 4 5 6 4 4 2 1 1 1 3 4 5 5 5 3 5 6 5 4 5 3 3 -0 -1
-3 -3 -2 -0 0 1 3 3 3 1 2 2 1 1 3 3 3 4 4 4 4 5 6 4 2 3 3 4 2 3 4 5 5 5 6 5 6 6 6 5 3 2 1 1
-3 -3 -3 -0 0 1 0 1 3 1 2 3 2 2 3 3 3 2 3 4 5 5 5 4 4 3 2 3 4 5 5 4 6 6 6 7 6 5 4 4 4 2 3 1
-3 -3 -2 -1 0 1 1 1 2 4 4 3 2 2 1 4 4 4 4 4 5 4 4 4 4 3 3 3 4 4 5 4 5 6 7 9 6 4 3 3 4 2 1 4
-3 -3 -2 -1 -0 1 1 2 2 5 4 2 2 4 3 2 4 4 4 3 4 4 4 6 6 5 5 5 5 5 4 5 7 8 8 6 6 7 4 5 5 2 2 2
-3 -4 -4 -2 -1 1 2 4 3 4 4 3 2 3 4 5 5 5 4 4 5 4 6 6 7 5 5 4 5 2 4 4 6 7 8 5 2 6 6 5 8 4 3 3
-3 -4 -3 -2 -2 0 1 3 3 5 4 3 2 3 4 4 4 4 3 4 4 4 6 7 7 7 3 5 6 6 6 5 6 6 7 5 2 1 4 8 5 1 4 4
-4 -5 -4 -3 -2 -0 1 2 3 5 4 4 4 3 3 3 3 4 4 5 5 5 6 7 7 7 5 5 3 5 5 5 6 5 7 4 1 1 4 1 -0 -0 3 3
-4 -5 -3 -3 -2 -1 0 1 4 5 4 4 4 4 3 3 3 3 4 4 5 5 7 5 6 6 4 4 5 3 6 4 4 4 3 0 1 0 1 -0 0 0 0 1
-5 -4 -3 -11 -3 -2 -0 0 2 4 3 4 4 4 3 4 3 3 4 4 4 5 6 5 5 6 4 5 4 4 3 2 4 4 2 2 1 1 0 0 0 0 -0 -0
-5 -4 -13 -14 -5 -3 -1 -1 2 3 4 4 3 4 4 3 4 4 4 4 5 5 5 6 5 5 2 4 3 4 3 3 3 3 2 0 0 1 0 0 0 0 0 -0
-14 -13 -7 -7 -6 -4 -4 -2 3 3 4 5 5 5 4 5 4 4 4 4 5 5 6 6 7 3 3 2 2 3 2 4 4 5 2 1 0 1 -0 0 0 0 0 0
-5 -5 -4 -6 -9 -6 -4 2 2 3 4 5 5 5 5 4 4 4 5 5 5 5 6 6 6 5 4 3 4 2 1 2 2 2 1 -0 0 0 -0 -0 -0 -0 0 0
-4 -4 -4 -5 -12 -9 -3 1 3 4 4 5 4 3 5 5 5 5 5 5 5 5 4 6 6 6 5 6 6 2 2 2 0 1 0 0 0 0 -0 -0 -0 -0 -0 -0
-4 -4 -6 -7 -9 -9 -7 -3 1 2 4 5 4 4 4 5 5 5 5 5 5 6 6 6 5 4 4 6 3 3 2 2 0 0 0 -0 0 0 -0 -1 -1 -1 -3 -6
-7 -5 -2 -1 -0 -2 -0 1 3 4 4 4 4 4 4 5 5 5 6 6 6 5 5 5 5 5 5 4 3 2 2 1 1 0 -0 -0 -0 -0 -1 -1 -2 -4 -7 -7
-7 -3 -2 -0 -1 -0 1 3 3 4 5 5 4 3 4 4 5 4 4 4 5 5 5 4 5 5 3 3 2 2 2 1 0 -0 -1 -1 -0 -1 -1 -2 -4 -6 -7 -7
-5 -5 -3 -4 -1 0 2 3 4 4 3 4 4 3 3 4 4 4 3 3 2 5 2 5 4 5 3 3 3 3 2 1 0 -0 -0 -1 -1 -1 -1 -3 -5 -6 -6 -7
-4 -4 -3 -2 -1 -0 1 2 2 3 2 3 4 3 2 4 3 3 2 2 2 4 0 4 5 2 1 1 2 3 2 1 -0 -0 -1 -1 -1 -1 -2 -4 -5 -6 -8 -10
-4 -3 -3 -3 -2 1 2 3 3 3 2 3 3 2 2 2 2 1 1 3 3 -1 3 4 2 -0 -0 0 1 3 1 0 -0 -1 -1 -1 -1 -1 -2 -4 -6 -9 -10 -12
-4 -4 -4 -2 -0 1 1 1 1 -0 1 3 2 1 -0 1 -0 0 3 2 0 3 3 1 -2 -3 -3 -0 1 2 1 -0 -0 -1 -1 -1 -1 -2 -4 -6 -9 -10 -12 -14
-3 -3 -3 -2 -0 -0 -0 0 -0 1 2 2 1 1 -0 0 -1 -2 1 2 2 1 1 -2 -3 -3 -1 0 1 1 0 -0 -1 -1 -2 -2 -2 -3 -7 -9 -10 -12 -14 -13
-3 -3 -4 -1 -2 -3 -1 0 -0 1 2 2 1 1 2 2 -1 -0 1 0 1 0 -3 -3 -3 -2 -0 0 1 0 -0 -1 -1 -2 -2 -3 -4 -6 -8 -9 -12 -13 -14 -12
-4 -2 -2 -2 -3 -1 -1 -1 0 1 2 2 1 2 2 -3 -2 -2 -3 -1 -1 -2 -3 -3 -3 -1 -0 0 -0 -1 -1 -1 -2 -2 -3 -4 -7 -8 -10 -12 -11 -11 -11 -11

GFSNW_850_dewp_012.txt.gz
Dewpoint
-5 -2 -2 -1 -1 1 1 1 2 2 2 2 2 4 0 2 2 3 2 0 1 1 2 2 2 2 -0 -1 1 3 1 2 4 2 -1 -1 -1 0 1 5 4 5 3 2
-2 -2 -2 -2 -0 1 2 1 2 2 1 4 4 2 2 3 3 4 3 3 1 0 2 3 1 1 -1 -0 1 2 1 5 5 4 3 1 2 1 0 3 4 5 5 -0
-2 -2 -3 -2 0 1 2 1 3 2 2 3 2 2 2 4 3 4 2 3 2 2 2 1 2 2 0 -0 -0 1 1 2 4 3 4 3 6 4 3 5 5 3 3 1
-2 -2 -5 -3 0 1 2 2 3 2 4 3 0 1 2 4 4 3 3 3 2 2 3 3 3 2 1 1 1 1 2 5 5 3 2 3 5 4 5 5 4 4 1 -0
-3 -3 -5 -3 -1 1 1 1 3 2 3 1 -0 2 2 2 4 3 3 3 2 2 3 3 3 3 2 2 1 2 3 5 5 5 4 4 6 5 5 6 5 3 2 2
-3 -5 -9 -2 -2 0 1 1 2 3 3 2 1 2 1 1 2 3 3 2 3 4 3 2 3 2 2 2 2 3 4 5 6 5 3 4 7 6 6 6 5 3 4 2
-3 -5 -9 -3 -4 -0 1 1 1 3 3 2 0 0 1 2 1 4 3 3 3 4 4 4 4 3 3 4 4 2 5 5 5 6 6 9 7 5 5 5 5 3 2 1
-4 -5 -6 -3 -8 -4 1 2 2 3 3 1 0 1 1 3 3 3 3 3 3 3 3 4 4 4 5 4 4 4 3 5 7 8 8 5 5 5 7 5 4 1 2 1
-4 -5 -7 -3 -12 -6 0 2 2 3 4 2 0 1 0 2 3 4 3 4 4 3 5 5 6 6 4 4 4 4 4 4 6 7 8 9 5 2 2 2 5 1 1 1
-5 -5 -6 -4 -14 -10 -7 1 1 2 3 4 1 2 3 3 3 4 3 4 4 5 5 5 7 5 4 5 5 6 5 6 6 7 7 5 2 1 4 6 4 1 2 1
-9 -3 -6 -10 -13 -16 -5 -4 1 0 1 4 2 1 3 3 3 3 3 4 5 5 5 6 5 6 4 5 3 4 4 6 6 6 5 7 1 3 4 2 1 0 2 3
-12 -6 -5 -11 -10 -11 -7 -2 -2 0 0 4 3 3 2 2 2 2 3 4 4 4 5 5 6 5 4 4 5 2 5 4 4 4 4 1 1 2 1 1 1 1 2 3
-10 -4 -4 -4 -6 -14 -12 -10 -5 0 2 4 4 4 3 3 3 3 4 4 4 5 4 5 5 6 5 5 5 4 3 2 5 4 2 2 2 1 1 0 1 0 1 2
-4 -4 -4 -5 -4 -4 -6 -14 -11 -2 0 3 3 3 3 3 3 3 3 3 4 4 5 4 4 5 3 5 4 4 3 3 4 4 3 2 1 1 0 0 0 0 2 1
-4 -4 -3 -5 -3 -3 -7 -15 -8 -1 0 3 4 4 3 3 3 4 4 4 4 5 5 5 5 4 3 3 3 4 2 4 4 3 2 2 1 1 0 0 -0 -0 -0 -1
-3 -4 -4 -4 -4 -3 -4 -1 -0 0 0 1 5 5 5 5 5 4 4 4 4 5 5 4 4 3 4 6 5 2 2 2 2 2 1 1 0 0 -0 -0 -0 -1 -1 -0
-4 -4 -4 -4 -3 -3 -3 -2 -0 -0 1 1 4 3 5 5 4 4 4 4 4 4 4 4 4 4 5 6 6 2 3 2 2 2 2 1 0 0 -0 -0 -0 -1 -0 -0
-4 -5 -6 -3 -2 -3 -5 -13 -7 0 1 3 4 4 3 4 4 5 4 5 5 5 5 5 5 5 5 7 5 4 3 3 2 2 1 0 0 -0 -0 -0 -0 -1 -1 -1
-5 -6 -3 -3 -3 -3 -2 -2 -1 0 1 3 4 4 5 5 5 4 5 5 6 4 6 5 5 5 6 5 4 4 4 3 2 1 1 0 0 -0 -1 -0 -1 -0 -1 -1
-5 -4 -3 -2 -3 -2 -2 -0 0 1 2 3 4 2 4 4 5 5 5 4 5 5 5 4 4 5 4 4 4 4 3 2 2 0 -0 0 -0 -0 -1 -0 -0 -1 -1 -4
-4 -4 -3 -1 -1 -0 -0 -0 1 3 4 4 3 3 3 3 4 5 3 4 3 5 4 5 6 5 3 2 1 2 3 3 2 1 1 1 0 -0 -1 -1 -1 -2 -6 -8
-4 -3 -3 -2 -1 -0 1 1 2 3 4 4 4 3 2 3 4 4 3 4 3 5 0 4 5 3 1 -1 -0 1 2 3 2 1 -0 -0 -0 -0 -1 -1 -2 -6 -8 -8
-4 -3 -3 -2 -1 1 1 1 3 3 1 2 3 3 3 3 2 2 2 4 4 0 3 4 3 1 -1 -3 -1 2 2 2 1 0 -0 -0 -0 -0 -1 -1 -5 -7 -8 -8
-4 -3 -3 -1 0 0 -0 0 1 0 0 1 2 2 2 1 2 1 4 2 1 3 4 4 2 -2 -3 -2 -0 1 1 1 0 -0 -1 -1 -1 -1 -2 -3 -7 -7 -7 -8
-4 -4 -2 -1 -2 -1 -1 -1 -1 0 0 1 2 1 1 1 2 0 2 3 3 2 3 2 -2 -3 -2 -0 0 1 1 -0 -1 -1 -1 -1 -1 -1 -3 -6 -7 -6 -8 -10
-4 -4 -3 -3 -3 -3 -3 -3 -1 -0 0 2 2 2 3 3 2 2 3 3 3 3 2 -1 -3 -3 -2 -0 0 1 1 -0 -1 -1 -1 -1 -1 -2 -4 -6 -6 -8 -11 -13
-4 -3 -3 -3 -3 -4 -3 -4 -2 -2 -0 1 1 3 4 -1 1 1 1 2 2 -1 -3 -3 -3 -2 -2 -1 0 0 0 -1 -1 -1 -2 -2 -2 -4 -5 -6 -8 -10 -12 -13

GFSNW_850_dewp_015.txt.gz
Dewpoint
-2 -1 -2 -1 0 2 1 1 2 2 0 3 2 5 4 1 1 2 1 -1 -1 -0 0 1 1 1 -1 -1 -0 1 -0 1 4 2 -2 -2 -1 1 1 5 3 4 4 3
-3 -2 -2 -1 1 2 2 1 2 2 2 3 2 3 3 1 3 3 2 1 -0 -1 0 2 1 0 -1 -2 0 1 0 4 5 5 2 -1 1 -0 -0 2 4 6 6 2
-4 -2 -2 -2 0 2 1 1 3 2 2 3 1 5 3 4 3 2 1 1 -1 0 1 0 1 1 0 -1 -1 0 -0 2 5 3 5 2 6 3 2 5 6 4 3 2
-3 -3 -3 -2 -1 2 2 3 3 2 4 2 2 2 2 3 2 2 1 1 0 -0 1 1 1 1 1 0 -0 -0 0 6 4 2 2 3 4 4 4 6 6 6 3 2
-2 -3 -3 -2 -3 1 2 2 3 2 1 -0 -0 1 2 2 3 1 2 1 1 1 1 1 2 1 1 1 1 1 2 5 5 5 3 3 5 4 5 7 6 6 6 6
-3 -3 -4 -3 -4 0 1 2 2 3 1 -0 -0 0 0 1 1 2 2 1 2 2 2 2 2 1 1 1 2 3 4 5 5 5 2 3 7 7 7 7 6 6 7 5
-5 -3 -4 -4 -11 -0 1 1 2 3 2 -0 -1 -1 -0 0 1 3 2 2 2 4 4 3 3 2 2 2 3 3 5 5 6 7 5 9 6 4 5 6 5 3 2 3
-6 -4 -3 -3 -15 -6 1 1 2 2 3 1 -0 -1 1 1 0 2 3 3 3 3 3 3 2 4 4 4 3 4 4 5 7 8 6 3 6 4 6 7 6 1 3 4
-23 -8 -3 -8 -11 -16 -4 1 2 2 4 1 -1 -0 -0 2 2 3 2 4 4 4 3 4 4 5 3 4 5 4 4 3 6 7 8 7 5 2 3 3 6 1 1 3
-24 -25 -17 -10 -12 -13 -12 -1 1 2 3 2 2 -0 0 0 1 2 3 4 4 4 5 5 4 5 3 4 4 5 6 6 7 7 7 5 2 1 2 7 4 1 2 2
-21 -14 -20 -4 -4 -9 -14 -5 -0 -0 0 2 4 1 2 2 2 2 3 4 4 4 5 5 5 5 3 4 1 3 4 5 5 5 7 7 1 1 4 3 1 1 1 5
-17 -10 -4 -4 -4 -4 -4 -5 -8 -3 -1 2 4 4 2 3 2 3 3 4 3 4 4 5 5 6 3 3 5 1 5 2 4 3 4 1 1 1 2 2 1 1 1 3
-4 -5 -4 -4 -4 -4 -3 -3 -5 -6 -0 3 5 4 3 2 2 2 3 4 4 4 4 5 5 6 5 7 4 3 2 1 3 4 2 2 2 1 1 1 1 1 2 2
-3 -3 -3 -3 -4 -4 -3 -3 -4 -6 -1 1 4 4 4 3 3 3 3 4 3 4 4 5 5 5 4 4 4 4 3 3 4 3 2 2 1 1 1 1 0 1 2 0
-4 -3 -3 -3 -4 -5 -4 -4 -4 -9 -1 1 4 4 3 3 4 3 3 4 5 5 5 5 5 4 4 2 3 4 2 3 4 3 2 2 1 1 0 0 -0 -0 -1 -2
-3 -4 -4 -3 -4 -5 -3 -2 -1 -1 -1 -0 5 4 5 4 4 4 4 4 5 5 5 5 4 3 4 6 4 1 0 1 1 1 1 1 1 0 0 -0 -1 -1 -1 -1
-3 -5 -4 -4 -4 -4 -3 -3 -1 -1 -0 0 4 4 4 5 4 4 4 4 5 5 5 4 4 4 5 5 5 1 1 2 2 2 2 1 1 1 -0 -0 -1 -1 -1 -1
-6 -4 -5 -4 -2 -3 -3 -4 -3 -2 0 1 4 5 4 4 5 4 4 5 5 5 5 5 5 5 5 6 3 3 3 2 3 2 2 1 1 0 -0 -0 -1 -1 -2 -2
-9 -4 -3 -2 -3 -2 -2 -3 -2 -0 -0 1 4 5 5 4 4 5 5 5 6 4 5 5 5 5 6 4 4 4 4 3 3 2 1 1 0 -0 -0 -1 -2 -2 -2 -2
-6 -4 -2 -2 -4 -2 -2 -2 -0 -0 1 2 4 2 4 4 4 5 5 5 5 6 5 4 5 5 3 3 3 3 4 3 2 1 1 0 0 -0 -1 -1 -1 -2 -1 -2
-4 -3 -2 -2 -1 -1 -0 -0 0 1 3 3 3 2 2 3 4 4 4 4 4 6 4 4 5 5 3 2 0 -0 1 2 3 2 1 1 0 0 -1 -1 -2 -1 -1 -2
-4 -3 -3 -1 -1 -0 1 2 1 3 4 4 3 3 3 4 4 4 3 5 4 6 1 4 4 4 1 -0 -3 -1 1 2 2 2 1 0 1 0 -1 -1 -1 -1 -3 -6
-4 -3 -3 -2 -0 2 2 2 2 3 1 1 2 3 3 3 3 3 3 4 5 1 4 4 3 2 -1 -3 -2 -0 2 2 1 1 1 -0 -0 -0 -1 -1 -1 -2 -7 -8
-3 -3 -1 -1 1 -1 -0 -0 1 -0 0 0 1 2 3 2 3 3 4 3 2 3 4 4 5 -0 -3 -2 -0 1 1 1 0 -0 -0 -0 -0 -1 -1 -1 -1 -6 -8 -8
-3 -3 -1 -1 -2 -1 -1 -1 -1 -0 0 1 2 2 1 2 3 2 3 3 3 3 4 4 1 -3 -2 -2 -0 0 1 0 -0 -1 -1 -1 -1 -1 -1 -2 -5 -7 -8 -8
-4 -3 -2 -2 -2 -1 -2 -2 -1 -1 -0 1 1 2 3 4 4 2 3 3 4 4 1 -1 -2 -3 -3 -2 -1 -0 0 -0 -1 -1 -1 -1 -1 -1 -2 -4 -7 -7 -7 -8
-4 -3 -2 -2 -3 -3 -3 -4 -3 -2 -0 1 1 3 4 1 3 3 3 3 2 -1 -1 -2 -3 -3 -3 -3 -2 -1 -0 -1 -1 -1 -2 -2 -2 -2 -4 -6 -6 -6 -7 -9

GFSNW_850_dewp_021.txt.gz
Dewpoint
-4 -4 -6 -3 0 -0 -1 -0 0 1 1 1 2 3 2 4 3 2 1 -1 -0 0 1 2 1 1 0 -1 -1 1 -0 2 3 2 0 -0 1 2 1 3 1 2 2 2
-6 -8 -13 -7 0 -1 -1 0 1 1 2 2 3 3 3 3 4 3 2 1 -1 -1 -0 2 0 1 -2 -1 -1 1 0 2 2 3 2 0 2 1 1 1 2 3 4 2
-4 -6 -11 -10 1 1 0 1 -0 -0 2 3 3 4 4 4 2 2 1 0 -2 -1 0 -0 1 2 -1 -1 0 -0 -1 3 0 3 2 3 3 3 2 2 5 3 3 2
-6 -9 -11 -12 1 1 1 2 1 1 1 2 2 4 4 3 3 1 1 1 -0 0 1 1 2 1 1 -1 1 -0 1 2 3 3 2 3 2 3 3 4 3 6 3 3
-12 -25 -16 -15 0 1 0 1 2 2 2 1 2 2 3 3 3 3 2 1 1 2 3 3 2 2 2 1 1 1 1 1 4 2 2 3 4 3 3 3 3 4 4 5
-19 -25 -27 -17 -9 1 2 1 2 3 2 -0 0 0 2 2 2 2 2 1 2 5 4 3 2 1 1 0 1 2 3 3 3 2 3 3 5 3 3 5 5 6 7 5
-18 -21 -23 -28 -17 -10 1 1 2 2 2 1 0 1 0 2 3 3 2 1 3 4 3 2 2 2 2 1 1 1 5 4 5 5 3 5 5 4 4 5 5 5 5 3
-4 -15 -18 -12 -29 -18 -8 1 1 2 3 3 1 -1 -0 2 2 3 3 3 3 3 3 4 4 5 3 2 2 3 3 4 6 7 6 3 3 5 5 6 5 3 2 2
-2 -3 -6 -12 -6 -26 -16 -1 -0 1 2 3 3 3 -1 2 2 2 4 3 2 3 4 4 4 3 5 6 5 3 3 4 6 6 7 6 3 3 4 3 7 2 2 3
-2 -2 -2 -3 -5 -9 -17 -5 -6 -1 1 2 2 3 2 1 1 3 3 4 4 4 4 5 4 3 3 5 6 6 6 6 6 6 7 5 1 0 3 7 4 2 2 3
-3 -2 -3 -3 -3 -4 -8 -10 -3 -4 -1 -0 0 1 2 4 1 3 4 3 4 4 5 5 5 5 4 4 3 5 5 6 6 6 7 5 -1 2 5 2 2 1 2 2
-3 -3 -3 -3 -4 -3 -4 -6 -6 -4 -3 -5 -1 1 1 3 4 4 3 4 3 3 4 3 4 4 4 4 5 2 5 3 4 4 3 -1 1 1 2 2 1 1 1 2
-4 -3 -2 -3 -4 -4 -4 -4 -6 -3 -3 -4 -3 -2 0 2 3 4 3 4 4 4 3 3 4 5 4 5 5 4 3 1 3 3 2 1 2 1 1 1 0 1 2 2
-4 -3 -3 -4 -4 -4 -4 -3 -5 -5 -3 -3 -1 2 4 2 2 2 2 3 3 3 3 4 4 5 3 3 4 4 3 3 4 3 2 2 1 1 1 0 1 2 1 1
-3 -3 -4 -4 -4 -4 -6 -5 -6 -7 -4 -2 -2 1 4 4 2 2 1 2 3 4 4 5 4 3 4 3 3 4 2 2 4 4 2 2 2 1 1 0 0 0 0 -0
-5 -3 -3 -4 -3 -3 -3 -5 -3 -4 -4 -4 -0 2 4 4 3 2 3 4 4 4 4 5 4 4 4 4 5 2 1 1 1 1 1 2 2 1 1 -0 -1 -1 -1 -1
-3 -3 -3 -3 -3 -3 -3 -5 -3 -2 -2 -2 -1 3 4 5 5 5 5 5 5 4 4 5 4 4 4 5 5 1 1 2 2 2 2 2 1 1 1 -0 -1 -1 -1 -2
-8 -4 -5 -4 -3 -4 -4 -5 -5 -3 -3 -2 -0 4 4 4 5 5 5 5 5 5 4 5 5 4 4 5 3 3 4 4 3 3 3 2 2 1 1 -0 -1 -2 -2 -2
-15 -6 -4 -3 -3 -4 -3 -3 -4 -3 -2 -2 0 3 5 4 5 5 4 4 5 4 4 4 4 4 5 4 4 3 1 1 3 3 3 2 1 1 0 -1 -2 -1 -1 -2
-7 -4 -2 -3 -3 -3 -2 -2 -2 -2 -2 -2 1 3 4 4 4 4 4 5 5 5 5 4 4 5 3 -1 -3 -3 -2 -3 -1 2 3 2 1 1 0 -1 -1 -1 -0 -1
-6 -3 -3 -3 -3 -2 -1 -1 -1 -0 1 1 3 3 3 3 4 4 4 3 3 5 4 4 4 5 -1 -3 -2 -1 -0 0 0 1 2 2 2 2 1 -1 -2 -2 -1 1
-8 -3 -3 -2 -1 -1 -0 0 1 1 3 3 3 3 3 3 3 3 3 3 3 4 1 3 3 2 -2 -3 -2 -1 0 -0 1 1 2 2 2 1 0 -1 -1 -2 -1 -1
-3 -3 -3 -2 -1 0 1 2 3 2 0 1 2 2 3 3 3 3 2 3 4 0 3 3 2 -1 -2 -3 -3 -2 -1 -0 0 1 1 1 1 0 -0 -1 -1 -2 -2 0
-3 -4 -3 -2 -0 -1 -0 0 0 -0 0 0 1 2 2 2 1 2 2 2 1 2 3 2 -0 -2 -3 -3 -3 -2 -1 -1 -0 -1 -0 -0 0 2 1 0 -1 -2 -0 2
-4 -4 -3 -2 -2 -1 -1 -1 -0 -0 0 1 2 2 2 1 2 2 2 2 2 1 1 -0 -1 -2 -3 -4 -3 -3 -2 -1 -2 -1 -1 -1 0 2 2 1 0 -0 2 -2
-4 -4 -3 -3 -2 -2 -2 -2 -1 -1 0 1 1 1 2 3 1 2 2 2 2 2 -3 -2 -3 -3 -3 -3 -4 -3 -3 -2 -2 -2 -2 -1 -1 -1 0 0 -0 0 -1 -3
-5 -4 -4 -3 -2 -2 -3 -3 -3 -3 -1 1 0 2 3 1 2 2 1 2 -1 -2 -2 -3 -3 -3 -3 -3 -2 -3 -3 -2 -2 -2 -2 -2 -2 -2 -2 -2 -2 -3 -3 -5